FW2462 Weather Reports


time (UTC)temp
C
wind
direction
speed
KPH
gust
KPH
rain 1hr
cm
rain 24hr
cm
rain mn
cm
humidity
%
barometer
mb
20260503054942 5 121 0.0 0.0 0.00 0.00 0.00 80 1018.4
20260503054224 5 122 0.0 0.0 0.00 0.00 0.00 79 1018.4
20260503053722 5 122 0.0 3.2 0.00 0.00 0.00 78 1018.5
20260503053222 5 122 0.0 3.2 0.00 0.00 0.00 78 1018.5
20260503052722 5 359 0.0 0.0 0.00 0.00 0.00 79 1018.5
20260503052224 5 359 0.0 1.6 0.00 0.00 0.00 78 1018.4
20260503051724 5 359 0.0 1.6 0.00 0.00 0.00 79 1018.4
20260503051223 5 15 0.0 0.0 0.00 0.00 0.00 79 1018.4
20260503050724 5 15 0.0 0.0 0.00 0.00 0.00 78 1018.3
20260503050704 5 15 0.0 0.0 0.00 0.00 0.00 78 1018.4
20260503045722 5 15 0.0 0.0 0.00 0.00 0.00 77 1018.3
20260503045220 5 15 0.0 1.6 0.00 0.00 0.00 78 1018.3
20260503044720 5 15 0.0 1.6 0.00 0.00 0.00 77 1018.2
20260503044219 5 15 0.0 1.6 0.00 0.00 0.00 77 1018.3
20260503044205 5 15 0.0 0.0 0.00 0.00 0.00 76 1018.3
20260503043220 6 15 0.0 1.6 0.00 0.00 0.00 76 1018.3
20260503041713 6 15 0.0 1.6 0.00 0.00 0.00 75 1018.3
20260503041210 6 334 0.0 9.7 0.00 0.00 0.00 75 1018.2
20260503040711 6 334 0.0 9.7 0.00 0.00 0.00 76 1018.1
20260503040435 6 39 0.0 0.0 0.00 0.00 0.00 74 1018.1
20260503035710 6 39 0.0 0.0 0.00 0.00 0.00 74 1018.0
20260503035210 6 39 0.0 0.0 0.00 0.00 0.00 73 1018.1
20260503034941 6 39 0.0 0.0 0.00 0.00 0.00 74 1017.9
20260503034441 6 39 0.0 0.0 0.00 0.00 0.00 73 1017.9
20260503033710 6 39 0.0 0.0 0.00 0.00 0.00 72 1017.8
20260503033209 6 39 0.0 0.0 0.00 0.00 0.00 71 1017.9
20260503032710 6 39 0.0 0.0 0.00 0.00 0.00 71 1017.9
20260503032210 7 39 0.0 0.0 0.00 0.00 0.00 70 1017.9
20260503031710 7 39 0.0 0.0 0.00 0.00 0.00 68 1017.6
20260503031210 7 39 0.0 0.0 0.00 0.00 0.00 68 1017.7
20260503030709 7 39 0.0 0.0 0.00 0.00 0.00 68 1017.6
20260503030434 7 39 0.0 0.0 0.00 0.00 0.00 67 1017.6
20260503025711 8 38 0.0 0.0 0.00 0.00 0.00 66 1017.6
20260503025656 8 38 0.0 0.0 0.00 0.00 0.00 66 1017.6
20260503024709 8 38 0.0 0.0 0.00 0.00 0.00 65 1017.5
20260503024209 8 39 0.0 0.0 0.00 0.00 0.00 64 1017.6
20260503023708 8 38 0.0 1.6 0.00 0.00 0.00 63 1017.6
20260503023207 9 39 0.0 1.6 0.00 0.00 0.00 61 1017.6
20260503022706 10 39 0.0 1.6 0.00 0.00 0.00 60 1017.5
20260503022202 10 39 0.0 4.8 0.00 0.00 0.00 60 1017.5
20260503020656 11 329 1.6 8.0 0.00 0.00 0.00 54 1017.3
20260503020154 11 349 1.6 8.0 0.00 0.00 0.00 54 1017.3
20260503015655 10 350 1.6 6.4 0.00 0.00 0.00 55 1017.0
20260503015155 11 101 1.6 6.4 0.00 0.00 0.00 56 1017.0
20260503014654 11 9 1.6 12.9 0.00 0.00 0.00 55 1017.0
20260503014148 11 302 1.6 12.9 0.00 0.00 0.00 54 1016.9
20260503013643 11 24 1.6 9.7 0.00 0.00 0.00 55 1016.9
20260503013137 11 333 0.0 8.0 0.00 0.00 0.00 54 1016.8
20260503012630 11 84 1.6 8.0 0.00 0.00 0.00 55 1016.7
20260503012124 11 169 1.6 8.0 0.00 0.00 0.00 54 1016.7
20260503011847 11 296 1.6 8.0 0.00 0.00 0.00 55 1016.6
20260503011112 11 8 1.6 8.0 0.00 0.00 0.00 54 1016.5
20260503010606 11 97 0.0 4.8 0.00 0.00 0.00 57 1016.5
20260503010100 11 338 1.6 6.4 0.00 0.00 0.00 56 1016.5
20260503005553 11 358 1.6 6.4 0.00 0.00 0.00 57 1016.5
20260503005319 11 54 0.0 1.6 0.00 0.00 0.00 61 1016.4
20260503004541 11 281 0.0 1.6 0.00 0.00 0.00 62 1016.3
20260503004035 11 281 0.0 1.6 0.00 0.00 0.00 63 1016.2
20260503003803 11 281 0.0 1.6 0.00 0.00 0.00 63 1016.1
20260503003024 11 281 0.0 1.6 0.00 0.00 0.00 62 1016.1
20260503002746 11 291 0.0 1.6 0.00 0.00 0.00 61 1016.0
20260503002238 12 291 0.0 0.0 0.00 0.00 0.00 60 1015.9
20260503001736 12 291 0.0 0.0 0.00 0.00 0.00 59 1015.8
20260503001000 12 291 0.0 0.0 0.00 0.00 0.00 58 1015.8
20260503000454 12 291 0.0 0.0 0.00 0.00 0.00 57 1015.6
20260502235949 12 291 0.0 0.0 0.00 0.00 0.00 58 1015.4
20260502235442 13 291 0.0 1.6 0.00 0.00 0.00 58 1015.4
20260502234936 13 291 0.0 1.6 0.00 0.00 0.00 57 1015.4
20260502234429 13 291 0.0 1.6 0.00 0.00 0.00 57 1015.4
20260502234154 13 291 0.0 1.6 0.00 0.00 0.00 54 1015.4
20260502233418 13 291 0.0 4.8 0.00 0.00 0.00 56 1015.3
20260502233356 13 293 0.0 4.8 0.00 0.00 0.00 54 1015.2
20260502232635 13 277 0.0 3.2 0.00 0.00 0.00 54 1015.2
20260502231901 13 321 0.0 11.3 0.00 0.00 0.00 53 1015.1
20260502231353 13 302 1.6 11.3 0.00 0.00 0.00 52 1015.0
20260502230848 13 357 1.6 6.4 0.00 0.00 0.00 52 1014.9
20260502230342 13 13 1.6 4.8 0.00 0.00 0.00 56 1014.9
20260502225329 13 46 1.6 8.0 0.00 0.00 0.00 52 1014.9
20260502224823 14 43 1.6 8.0 0.00 0.00 0.00 53 1014.9
20260502224318 14 28 1.6 8.0 0.00 0.00 0.00 56 1014.8
20260502223811 14 5 1.6 6.4 0.00 0.00 0.00 60 1014.8
20260502223307 14 44 0.0 6.4 0.00 0.00 0.00 60 1014.8
20260502222807 14 31 0.0 1.6 0.00 0.00 0.00 61 1014.7
20260502222308 14 42 0.0 1.6 0.00 0.00 0.00 60 1014.7
20260502221805 15 41 0.0 1.6 0.00 0.00 0.00 60 1014.6
20260502221530 15 249 0.0 1.6 0.00 0.00 0.00 57 1014.4
20260502220804 15 271 0.0 1.6 0.00 0.00 0.00 56 1014.4
20260502220300 15 267 0.0 1.6 0.00 0.00 0.00 57 1014.3
20260502215801 15 14 0.0 3.2 0.00 0.00 0.00 56 1014.0
20260502215300 15 331 0.0 3.2 0.00 0.00 0.00 54 1014.0
20260502215244 16 239 0.0 3.2 0.00 0.00 0.00 58 1014.0
20260502214300 16 207 0.0 3.2 0.00 0.00 0.00 56 1014.0
20260502214021 16 139 1.6 4.8 0.00 0.00 0.00 53 1013.9
20260502213258 16 130 1.6 4.8 0.00 0.00 0.00 53 1013.8
20260502212759 17 273 1.6 6.4 0.00 0.00 0.00 54 1013.8
20260502212254 17 240 1.6 6.4 0.00 0.00 0.00 52 1013.8
20260502211753 18 233 1.6 8.0 0.00 0.00 0.00 48 1013.7
20260502211253 18 334 1.6 8.0 0.00 0.00 0.00 49 1013.7
20260502210755 18 199 1.6 4.8 0.00 0.00 0.00 48 1013.7
20260502210518 18 100 1.6 4.8 0.00 0.00 0.00 48 1013.4
20260502205754 18 79 1.6 3.2 0.00 0.00 0.00 48 1013.5
20260502205247 18 104 1.6 4.8 0.00 0.00 0.00 51 1013.3
20260502204741 17 80 1.6 4.8 0.00 0.00 0.00 50 1013.4
20260502204236 17 200 1.6 6.4 0.00 0.00 0.00 49 1013.5
20260502203735 17 14 1.6 6.4 0.00 0.00 0.00 48 1013.8
20260502203234 17 84 1.6 4.8 0.00 0.00 0.00 49 1013.9
20260502202734 17 113 1.6 4.8 0.00 0.00 0.00 49 1013.9
20260502202452 17 15 1.6 4.8 0.00 0.00 0.00 53 1013.8
20260502201733 17 75 1.6 6.4 0.00 0.00 0.00 55 1014.0
20260502201233 17 78 1.6 6.4 0.00 0.00 0.00 51 1014.0
20260502200733 17 75 1.6 4.8 0.00 0.00 0.00 52 1014.1
20260502200234 17 153 1.6 4.8 0.00 0.00 0.00 53 1014.1
20260502200001 17 86 1.6 4.8 0.00 0.00 0.00 52 1014.2
20260502195456 17 8 1.6 4.8 0.00 0.00 0.00 53 1014.4
20260502194730 17 35 1.6 6.4 0.00 0.00 0.00 49 1014.6
20260502194233 16 274 1.6 6.4 0.00 0.00 0.00 49 1014.7
20260502193727 16 238 1.6 6.4 0.00 0.00 0.00 49 1014.8
20260502193229 16 91 1.6 8.0 0.00 0.00 0.00 56 1014.7
20260502192726 16 226 1.6 8.0 0.00 0.00 0.00 51 1014.8
20260502192226 16 68 1.6 6.4 0.00 0.00 0.00 51 1014.9
20260502192001 16 91 1.6 6.4 0.00 0.00 0.00 50 1014.8
20260502191450 17 101 3.2 6.4 0.00 0.00 0.00 50 1014.8
20260502190726 16 166 3.2 6.4 0.00 0.00 0.00 47 1014.8
20260502190227 16 68 1.6 6.4 0.00 0.00 0.00 53 1014.9
20260502185728 16 333 0.0 4.8 0.00 0.00 0.00 52 1015.0
20260502185224 15 110 1.6 6.4 0.00 0.00 0.00 55 1015.0
20260502184725 15 285 1.6 8.0 0.00 0.00 0.00 51 1015.1
20260502184224 15 215 0.0 8.0 0.00 0.00 0.00 51 1015.1
20260502183725 15 54 1.6 3.2 0.00 0.00 0.00 53 1015.1
20260502183226 15 321 1.6 4.8 0.00 0.00 0.00 57 1015.2
20260502183215 15 217 1.6 4.8 0.00 0.00 0.00 52 1015.3
20260502182224 15 181 1.6 9.7 0.00 0.00 0.00 51 1015.3
20260502181727 15 330 0.0 9.7 0.00 0.00 0.00 52 1015.4
20260502181226 15 76 0.0 4.8 0.00 0.00 0.00 55 1015.3
20260502180950 15 218 0.0 4.8 0.00 0.00 0.00 52 1015.4
20260502180215 15 72 0.0 4.8 0.00 0.00 0.00 52 1015.5
20260502170148 12 36 1.6 6.4 0.00 0.00 0.00 62 1016.3
20260502164142 11 14 1.6 9.7 0.00 0.00 0.00 62 1016.8
20260502163641 11 351 1.6 9.7 0.00 0.00 0.00 64 1016.9
20260502163358 11 20 1.6 8.0 0.00 0.00 0.00 63 1016.9
20260502162139 11 328 3.2 11.3 0.00 0.00 0.00 64 1017.2
20260502161636 11 68 1.6 11.3 0.00 0.00 0.00 69 1016.9
20260502161137 11 355 1.6 8.0 0.00 0.00 0.00 66 1017.2
20260502160633 11 348 1.6 8.0 0.00 0.00 0.00 65 1017.3
20260502160125 11 347 0.0 3.2 0.00 0.00 0.00 66 1017.3
20260502152037 10 105 0.0 4.8 0.00 0.00 0.00 66 1017.4
20260502151531 10 47 1.6 8.0 0.00 0.00 0.00 68 1017.2
20260502151025 10 94 1.6 8.0 0.00 0.00 0.00 65 1017.3
20260502150519 10 32 1.6 8.0 0.00 0.00 0.00 65 1017.2
20260502130256 10 324 1.6 6.4 0.00 0.00 0.00 72 1016.6
20260502123725 10 33 1.6 6.4 0.00 0.00 0.00 77 1016.4
20260502123219 10 33 1.6 6.4 0.00 0.00 0.00 76 1016.3
20260502122719 10 10 1.6 6.4 0.00 0.00 0.00 76 1016.3
20260502122440 10 14 0.0 4.8 0.00 0.00 0.00 77 1016.3
20260502121718 10 12 0.0 4.8 0.00 0.00 0.00 81 1016.4
20260502121702 10 5 0.0 3.2 0.00 0.00 0.00 82 1016.4
20260502120716 10 1 0.0 3.2 0.00 0.00 0.00 83 1016.4
20260502120216 10 0 0.0 3.2 0.00 0.00 0.00 82 1016.3
20260502115715 10 20 0.0 3.2 0.00 0.00 0.00 85 1016.4
20260502115213 10 20 0.0 3.2 0.00 0.00 0.00 84 1016.5
20260502114711 10 11 0.0 3.2 0.00 0.00 0.00 85 1016.3
20260502114207 10 11 0.0 3.2 0.00 0.00 0.00 85 1016.3
20260502113708 10 142 0.0 1.6 0.00 0.00 0.00 85 1016.3
20260502113210 10 141 0.0 0.0 0.00 0.00 0.00 86 1016.1
20260502112709 10 141 0.0 0.0 0.00 0.00 0.00 87 1016.2
20260502111709 10 142 0.0 0.0 0.00 0.00 0.00 87 1016.1
20260502111207 10 142 0.0 0.0 0.00 0.00 0.00 87 1015.9
20260502110933 10 142 0.0 0.0 0.00 0.00 0.00 87 1016.1
20260502110428 10 142 0.0 0.0 0.00 0.00 0.00 87 1016.0
20260502105708 10 141 0.0 0.0 0.00 0.00 0.00 87 1016.1
20260502105208 10 142 0.0 0.0 0.00 0.00 0.00 87 1016.0
20260502104931 10 142 0.0 0.0 0.00 0.00 0.00 87 1015.9
20260502104208 10 142 0.0 0.0 0.00 0.00 0.00 87 1015.8
20260502103708 10 142 0.0 0.0 0.00 0.00 0.00 87 1015.8
20260502103207 10 142 0.0 0.0 0.00 0.00 0.00 87 1015.9
20260502102707 10 141 0.0 0.0 0.00 0.00 0.00 87 1015.9
20260502102208 10 142 0.0 0.0 0.00 0.00 0.00 86 1016.1
20260502101709 10 142 0.0 0.0 0.00 0.00 0.00 86 1016.0
20260502101207 10 142 0.0 0.0 0.00 0.00 0.00 86 1016.1
20260502100709 10 142 0.0 0.0 0.00 0.00 0.00 86 1016.1
20260502100207 10 142 0.0 0.0 0.00 0.00 0.00 87 1016.0
20260502091136 10 142 0.0 1.6 0.00 0.00 0.00 85 1015.8
20260502090857 10 142 0.0 1.6 0.00 0.00 0.00 85 1015.8
20260502090124 10 160 0.0 1.6 0.00 0.00 0.00 85 1015.6
20260502070912 11 160 0.0 0.0 0.00 0.00 0.00 87 1015.1
20260502070406 11 160 0.0 0.0 0.00 0.00 0.00 87 1015.0
20260502065900 11 160 0.0 0.0 0.00 0.00 0.00 87 1015.2
20260502065354 11 160 0.0 0.0 0.00 0.00 0.00 87 1015.2
20260502064848 11 160 0.0 0.0 0.00 0.00 0.00 87 1015.2
20260502064341 11 160 0.0 0.0 0.00 0.00 0.00 87 1015.3
20260502063836 11 160 0.0 0.0 0.00 0.00 0.00 87 1015.3
20260502063330 11 160 0.0 0.0 0.00 0.00 0.00 87 1015.5